Springfield, OH

6:51 PM EDT on June 23, 2017 (GMT -0400)
Springfield-Beckley Municipal

Weather History for KSGH - January, 2013

Change the Weather History Date:

Wednesday, January 30, 2013

  Actual Average (KFFO) Record (KFFO)
Temperature  
Mean Temperature 47 °F -  
Max Temperature 63 °F 36 °F 66 °F (2013)
Min Temperature 31 °F 19 °F -2 °F (2004)
Degree Days  
Heating Degree Days 18    
Moisture  
Dew Point 46 °F    
Average Humidity 83    
Maximum Humidity 97    
Minimum Humidity 72    
Precipitation  
Precipitation 0.60 in - - ()
Sea Level Pressure  
Sea Level Pressure 29.40 in    
Wind  
Wind Speed 18 mph (WSW)    
Max Wind Speed 31 mph    
Max Gust Speed 39 mph    
Visibility 6 miles    
Events Rain , Snow    
Averages and records for this station are not official NWS values.
T = Trace of Precipitation, MM = Missing Value Source: NWS Daily Summary

Daily Weather History Graph

Daily Weather History Graph

Search for Another Location

Airport or City:

Trip Planner

Search our weather history database for the weather conditions in past years. The results will help you decide how hot, cold, wet, or windy it might be!

Date:

Astronomy

Jan. 30, 2013 Rise Set
Actual Time 7:45 AM EST 5:52 PM EST
Civil Twilight 7:16 AM EST 6:21 PM EST
Nautical Twilight 6:44 AM EST 6:53 PM EST
Astronomical Twilight 6:12 AM EST 7:25 PM EST
Moon 9:49 PM EST (1/30) 9:12 AM EST (1/30)
Length of Visible Light 11h 05m
Length of Day
10h 07m
Waning Gibbous, 88% of the Moon is Illuminated
Jan 30
Waning Gibbous
Feb 3
Last Quarter
Feb 10
New
Feb 17
First Quarter
Feb 25
Full

Hourly Weather History & Observations

Time (EST) Temp. Windchill Dew Point Humidity Pressure Visibility Wind Dir Wind Speed Gust Speed Precip Events Conditions
12:20 AM 62.6 °F - 55.4 °F 77% 29.61 in 10.0 mi South 19.6 mph 26.5 mph N/A   Scattered Clouds
12:56 AM 61.9 °F - 54.9 °F 78% 29.56 in 10.0 mi South 19.6 mph 28.8 mph N/A   Clear
1:56 AM 61.0 °F - 54.0 °F 78% 29.53 in 10.0 mi South 15.0 mph 24.2 mph N/A   Clear
2:56 AM 61.0 °F - 52.9 °F 75% 29.49 in 10.0 mi South 17.3 mph 25.3 mph N/A   Clear
3:56 AM 61.0 °F - 54.0 °F 78% 29.45 in 10.0 mi South 20.7 mph 26.5 mph N/A   Mostly Cloudy
4:56 AM 63.9 °F - 54.9 °F 72% 29.40 in 10.0 mi South 17.3 mph 28.8 mph 0.00 in   Overcast
5:56 AM 63.0 °F - 54.9 °F 75% 29.34 in 9.0 mi South 19.6 mph 28.8 mph 0.00 in Rain Light Rain
6:16 AM 60.8 °F - 55.4 °F 82% 29.41 in 5.0 mi WNW 27.6 mph 39.1 mph 0.01 in Rain Light Rain
6:18 AM 59.0 °F - 53.6 °F 82% 29.41 in 1.8 mi WNW 20.7 mph 39.1 mph 0.15 in Rain Heavy Rain
6:20 AM 55.4 °F - 51.8 °F 88% 29.41 in 1.0 mi WNW 17.3 mph 39.1 mph 0.19 in Rain Heavy Rain
6:23 AM 53.6 °F - 51.8 °F 94% 29.41 in 0.8 mi WNW 16.1 mph 39.1 mph 0.22 in Rain Heavy Rain
6:30 AM 53.6 °F - 51.8 °F 94% 29.44 in 1.2 mi WNW 17.3 mph 24.2 mph 0.26 in Rain Heavy Rain
6:38 AM 53.6 °F - 50.0 °F 88% 29.44 in 1.8 mi NW 16.1 mph 24.2 mph 0.31 in Rain Heavy Rain
6:46 AM 51.8 °F - 50.0 °F 94% 29.46 in 2.5 mi NW 19.6 mph - 0.34 in Rain Rain
6:56 AM 50.9 °F - 50.0 °F 97% 29.49 in 3.0 mi WNW 18.4 mph - 0.36 in Rain Rain
7:04 AM 51.8 °F - 48.2 °F 88% 29.49 in 4.0 mi WNW 15.0 mph - 0.01 in Rain Rain
7:45 AM 50.0 °F - 48.2 °F 94% 29.46 in 4.0 mi NE 3.5 mph - 0.08 in Rain Rain
7:56 AM 50.0 °F - 48.9 °F 96% 29.47 in 4.0 mi SE 3.5 mph - 0.09 in Rain Light Rain
8:56 AM 50.0 °F - 48.9 °F 96% 29.46 in 4.0 mi SSE 10.4 mph - 0.07 in Rain Light Rain
9:56 AM 52.0 °F - 48.9 °F 89% 29.46 in 10.0 mi South 13.8 mph 20.7 mph 0.01 in   Partly Cloudy
10:56 AM 52.9 °F - 47.8 °F 83% 29.37 in 10.0 mi South 16.1 mph 23.0 mph N/A   Clear
11:56 AM 54.9 °F - 46.9 °F 75% 29.38 in 10.0 mi SSW 16.1 mph 23.0 mph N/A   Clear
12:56 PM 54.9 °F - 48.9 °F 80% 29.40 in 10.0 mi SSW 17.3 mph 27.6 mph N/A   Mostly Cloudy
1:56 PM 54.0 °F - 46.9 °F 77% 29.37 in 10.0 mi SSW 20.7 mph 28.8 mph N/A   Overcast
2:24 PM 53.6 °F - 46.4 °F 77% 29.35 in 10.0 mi SSW 15.0 mph - N/A   Overcast
2:56 PM 54.0 °F - 46.9 °F 77% 29.32 in 10.0 mi SSW 15.0 mph - N/A   Overcast
3:56 PM 52.9 °F - 46.9 °F 80% 29.32 in 10.0 mi SSW 12.7 mph - N/A   Overcast
4:56 PM 52.9 °F - 45.0 °F 74% 29.31 in 10.0 mi SSW 16.1 mph 29.9 mph N/A   Mostly Cloudy
5:56 PM 52.0 °F - 45.0 °F 77% 29.28 in 10.0 mi SW 17.3 mph 23.0 mph N/A   Clear
6:56 PM 50.9 °F - 43.9 °F 77% 29.27 in 7.0 mi SW 15.0 mph 24.2 mph 0.00 in Rain Light Rain
7:10 PM 48.2 °F - 44.6 °F 87% 29.30 in 2.5 mi West 29.9 mph 35.7 mph 0.02 in Rain Heavy Rain
7:14 PM 46.4 °F 37.4 °F 42.8 °F 87% 29.31 in 1.8 mi West 28.8 mph 35.7 mph 0.04 in Rain Heavy Rain
7:16 PM 44.6 °F 35.7 °F 41.0 °F 87% 29.31 in 1.8 mi WNW 24.2 mph 35.7 mph 0.04 in Rain Rain
7:19 PM 44.6 °F 34.6 °F 39.2 °F 81% 29.32 in 2.0 mi WNW 31.1 mph 36.8 mph 0.05 in Rain Light Rain
7:23 PM 42.8 °F 32.1 °F 37.4 °F 81% 29.32 in 3.0 mi WNW 31.1 mph 39.1 mph 0.05 in Rain Rain
7:56 PM 37.9 °F 27.3 °F 32.9 °F 82% 29.34 in 6.0 mi West 21.9 mph 34.5 mph 0.07 in Rain Light Rain
8:17 PM 37.4 °F 26.9 °F 33.8 °F 87% 29.36 in 4.0 mi WNW 20.7 mph 27.6 mph 0.00 in Rain Light Rain
8:43 PM 37.4 °F 27.2 °F 32.0 °F 81% 29.37 in 9.0 mi West 19.6 mph - 0.00 in   Overcast
8:56 PM 36.9 °F 27.5 °F 32.0 °F 83% 29.37 in 8.0 mi West 16.1 mph 31.1 mph 0.00 in   Overcast
9:56 PM 32.9 °F 19.6 °F 27.1 °F 79% 29.42 in 4.0 mi West 26.5 mph 38.0 mph 0.00 in Snow Light Snow
10:56 PM 31.1 °F 17.7 °F 26.1 °F 82% 29.45 in 4.0 mi West 24.2 mph 36.8 mph 0.00 in Snow Light Snow
11:56 PM 31.1 °F 18.6 °F 24.1 °F 75% 29.50 in 9.0 mi West 20.7 mph 28.8 mph 0.00 in   Overcast